Location: Newark
(16.3678°N, 77.8722°E)
Time: 02:47:27
(UTC+00:00)

S-56A Canister/Altair - Pass Details

Date: 17 December 2019
Orbit: 634 x 2498 km, 38.9° (Epoch: 26 January)

Event Time Altitude Azimuth Distance (km) Brightness Sun altitude
Rises 00:02:22 0° 216° (SW) 3,913 11.0 -15.8°
Reaches altitude 10° 00:04:46 10° 212° (SSW) 3,161 10.5 -15.2°
Maximum altitude 00:12:42 57° 135° (SE) 1,854 9.8 -13.4°
Drops below altitude 10° 00:24:35 10° 61° (ENE) 4,642 12.1 -10.8°
Sets 00:28:51 0° 57° (ENE) 5,858 12.6 -9.8°
